This is the latest recevied weather packets stored in our database for station/object WL7CLI. If no packets are shown the sender has not sent any weather packets the latest 10 day(s).
| Time | Temp. | Humidity | Pressure | Rain* | Wind** | Luminosity | Snow |
|---|---|---|---|---|---|---|---|
| 1777559774 | 10.56° C | 86% | 1016.8 hPa | 0 mm | - | - | - |
| 1777559347 | 10° C | 87% | 1016.7 hPa | 0.25 mm | - | - | - |
| 1777559304 | 10.56° C | 87% | 1016.3 hPa | 0 mm | - | - | - |
| 1777559097 | 10° C | 87% | 1016.7 hPa | 0.25 mm | - | - | - |
| 1777558572 | 10° C | 86% | 1016.7 hPa | 0.25 mm | - | - | - |
| 1777557896 | 10° C | 87% | 1016.5 hPa | 0.25 mm | - | - | - |
| 1777557504 | 9.44° C | 89% | 1016 hPa | 0.25 mm | - | - | - |
| 1777557371 | 9.44° C | 89% | 1016.6 hPa | 1.52 mm | - | - | - |
| 1777556698 | 9.44° C | 89% | 1016.7 hPa | 1.52 mm | - | - | - |
| 1777556173 | 8.89° C | 89% | 1016.9 hPa | 1.52 mm | - | - | - |
| 1777555704 | 8.89° C | 88% | 1016.4 hPa | 1.52 mm | - | - | - |
| 1777555497 | 8.89° C | 88% | 1016.8 hPa | 2.03 mm | - | - | - |
| 1777554972 | 8.89° C | 88% | 1016.9 hPa | 2.03 mm | - | - | - |
| 1777554297 | 8.89° C | 87% | 1016.9 hPa | 2.03 mm | - | - | - |
| 1777553904 | 8.89° C | 86% | 1016.7 hPa | 1.78 mm | - | - | - |
| 1777553773 | 8.89° C | 86% | 1017.2 hPa | 1.52 mm | - | - | - |
| 1777553097 | 8.89° C | 84% | 1017.3 hPa | 1.27 mm | - | - | - |
| 1777552571 | 8.89° C | 82% | 1017.1 hPa | 1.02 mm | - | - | - |
| 1777552354 | 9.44° C | 78% | 1016.9 hPa | 0.51 mm | - | - | - |
| 1777552144 | 9.44° C | 77% | 1017.2 hPa | 0.25 mm | - | - | - |
| 1777552104 | 9.44° C | 78% | 1016.9 hPa | 0.51 mm | - | - | - |
| 1777551897 | 9.44° C | 77% | 1017.2 hPa | 0.25 mm | - | - | - |
| 1777551372 | 9.44° C | 73% | 1017.2 hPa | 0 mm | - | - | - |
| 1777550697 | 9.44° C | 71% | 1016.9 hPa | 0 mm | - | - | - |
| 1777550304 | 9.44° C | 71% | 1016.6 hPa | 0 mm | - | - | - |
* Rain latest hour (hover to see other rain measurements)
** Current wind speed in m/s (hover to see current wind gust speed)